Location: Newark
(31.5350°N, 35.0986°E)
Time: 08:35:18
(UTC+00:00)

Transit 4A - Pass Details

Date: 22 October 2019
Orbit: 868 x 976 km, 66.8° (Epoch: 13 November)

Event Time Altitude Azimuth Distance (km) Brightness Sun altitude
Rises 09:54:24 0° 351° (N) 3,532 10.5 46.8°
Reaches altitude 10° 09:57:46 10° 9° (N) 2,568 9.9 46.7°
Maximum altitude 10:01:48 19° 52° (NE) 1,999 9.5 46.5°
Drops below altitude 10° 10:05:47 10° 96° (E) 2,524 10.2 46.3°
Sets 10:09:01 0° 114° (ESE) 3,449 11.0 46.1°
